Location: Burzi?i
(45.0869°N, 16.0577°E)
Time: 11:01:07
(UTC+00:00)

Cosmos 2369 - Pass Details

Date: 29 October 2020
Orbit: 841 x 854 km, 71.0° (Epoch: 27 November)

Event Time Altitude Azimuth Distance (km) Brightness Sun altitude
Rises 16:43:47 0° 177° (S) 3,408 6.9 -10.5°
Reaches altitude 10° 16:46:26 10° 168° (SSE) 2,475 6.1 -10.9°
Maximum altitude 16:51:29 34° 105° (ESE) 1,374 4.3 -11.8°
Drops below altitude 10° 16:56:33 10° 42° (NE) 2,484 5.7 -12.7°
Enters shadow 16:57:15 - 39° (NE) 2,726 5.9 -12.8°
